Weather History for Berlin, NH

Change the Weather History Date:

Tuesday, January 8, 2002

  Actual Average Record
Temperature  
Mean Temperature 11 °F -  
Max Temperature 24 °F 22 °F 59 °F (2008)
Min Temperature -2 °F 2 °F -27 °F (2004)
Degree Days  
Heating Degree Days 54    
Moisture  
Dew Point 5 °F    
Average Humidity 85    
Maximum Humidity 96    
Minimum Humidity 60    
Precipitation  
Precipitation 0.00 in - - ()
Sea Level Pressure  
Sea Level Pressure 29.81 in    
Wind  
Wind Speed 2 mph (North)    
Max Wind Speed 6 mph    
Max Gust Speed -    
Visibility 10 miles    
Events      
Averages and records for this station are not official NWS values.
T = Trace of Precipitation, MM = Missing Value Source: NWS Daily Summary

Daily Weather History Graph

Daily Weather History Graph

Search for Another Location

Airport:

Trip Planner

Search our weather history database for the weather conditions in past years. The results will help you decide how hot, cold, wet, or windy it might be!

Date:

Astronomy

Jan. 08, 2002 Rise Set
Actual Time 7:20 AM EST 4:22 PM EST
Civil Twilight 6:47 AM EST 4:55 PM EST
Nautical Twilight 6:11 AM EST 5:31 PM EST
Astronomical Twilight 5:36 AM EST 6:06 PM EST
Moon 2:21 AM EST (1/8) 12:47 PM EST (1/8)
Length of Visible Light 10h 07m
Length of Day
9h 01m
Waning Crescent, 23% of the Moon is Illuminated
Jan 8
Waning Crescent
Jan 13
New
Jan 21
First Quarter
Jan 28
Full
Feb 4
Last Quarter

Hourly Weather History & Observations

Time (EST) Temp. Windchill Dew Point Humidity Pressure Visibility Wind Dir Wind Speed Gust Speed Precip Events Conditions
12:52 AM 10.9 °F 4.7 °F 6.1 °F 81% 29.72 in 10.0 mi NNW 3.5 mph - N/A   Partly Cloudy
1:52 AM 5.0 °F - 3.0 °F 92% 29.75 in 10.0 mi Calm Calm - N/A   Clear
2:52 AM 3.9 °F - 3.0 °F 96% 29.76 in 10.0 mi Calm Calm - N/A   Partly Cloudy
3:52 AM 5.0 °F - 1.9 °F 87% 29.77 in 10.0 mi Calm Calm - N/A   Clear
4:52 AM 8.1 °F -2.0 °F 6.1 °F 92% 29.79 in 10.0 mi North 5.8 mph - N/A   Clear
5:52 AM 5.0 °F -2.1 °F 1.9 °F 87% 29.81 in 10.0 mi North 3.5 mph - N/A   Clear
6:52 AM 7.0 °F -3.3 °F 3.9 °F 87% 29.84 in 10.0 mi North 5.8 mph - N/A   Clear
7:52 AM -2.0 °F - -4.0 °F 91% 29.86 in 10.0 mi Calm Calm - N/A   Clear
8:52 AM 1.9 °F - -0.9 °F 88% 29.87 in 2.5 mi Calm Calm - N/A   Mostly Cloudy
9:01 AM 1.4 °F -6.2 °F -0.4 °F 92% 29.79 in 7.0 mi SSE 3.5 mph - N/A   Scattered Clouds
9:52 AM 7.0 °F - 5.0 °F 92% 29.88 in 10.0 mi Calm Calm - N/A   Clear
10:52 AM 12.0 °F - 6.1 °F 77% 29.86 in 10.0 mi Calm Calm - N/A   Clear
11:52 AM 18.0 °F - 9.0 °F 68% 29.83 in 10.0 mi Calm Calm - N/A   Clear
12:52 PM 21.0 °F 14.6 °F 10.9 °F 65% 29.80 in 10.0 mi North 4.6 mph - N/A   Clear
1:52 PM 21.9 °F 17.2 °F 12.0 °F 66% 29.78 in 10.0 mi South 3.5 mph - N/A   Clear
2:52 PM 24.1 °F 19.7 °F 12.0 °F 60% 29.81 in 10.0 mi Variable 3.5 mph - N/A   Clear
3:52 PM 21.0 °F - 12.0 °F 68% 29.80 in 10.0 mi Calm Calm - N/A   Clear
4:52 PM 12.9 °F - 12.0 °F 96% 29.80 in 10.0 mi Calm Calm - N/A   Clear
5:52 PM 5.0 °F - 3.0 °F 92% 29.83 in 10.0 mi Calm Calm - N/A   Clear
6:52 PM 3.9 °F - 1.0 °F 88% 29.84 in 10.0 mi Calm Calm - N/A   Clear
7:52 PM 3.9 °F - 1.9 °F 91% 29.84 in 10.0 mi Calm Calm - N/A   Mostly Cloudy
8:52 PM 7.0 °F - 3.9 °F 87% 29.82 in 10.0 mi Calm Calm - N/A   Partly Cloudy
9:52 PM 6.1 °F - 3.9 °F 91% 29.81 in 9.0 mi Calm Calm - N/A   Mostly Cloudy
10:52 PM 10.0 °F - 8.1 °F 92% 29.79 in 10.0 mi Calm Calm - N/A   Overcast
11:52 PM 10.9 °F - 9.0 °F 92% 29.77 in 10.0 mi Calm Calm - 0.00 in   Overcast